Location: Allen Lane School
(37.8198°N, 89.7382°W)
Time: 19:46:14
(UTC+00:00)

Cosmos 1607 - Visible Passes

Search period start: 25 June 2022 00:00
Search period end: 05 July 2022 00:00
Orbit: 930 x 972 km, 65.0° (Epoch: 25 June)

Date Brightness Start Highest point End Pass type
(mag) Time Alt. Az. Time Alt. Az. Time Alt. Az.
25 Jun 4.9 02:46:30 18° SSE 02:49:27 25° ESE 02:54:23 10° NE visible
25 Jun 4.6 04:30:27 11° SW 04:36:18 52° NW 04:42:20 10° NNE visible
25 Jun 6.7 06:23:15 10° NW 06:25:01 11° NNW 06:26:47 10° NNW visible
26 Jun 4.2 03:01:24 10° S 03:07:18 45° ESE 03:13:10 10° NE visible
26 Jun 5.5 04:49:10 10° WSW 04:54:39 31° NW 05:00:07 10° NNE visible
27 Jun 3.8 03:19:02 10° SSW 03:25:17 80° ESE 03:31:30 10° NNE visible
27 Jun 6.3 05:08:44 10° W 05:13:11 20° NW 05:17:39 10° N visible
28 Jun 5.1 01:52:15 10° SSE 01:56:43 21° ESE 02:01:10 10° ENE visible
28 Jun 4.4 03:37:15 10° SW 03:43:26 61° WNW 03:49:34 10° NNE visible
28 Jun 6.7 05:29:13 10° WNW 05:31:56 13° NW 05:34:39 10° N visible
29 Jun 4.4 02:08:52 10° S 02:14:32 37° ESE 02:20:10 10° NE visible
29 Jun 5.4 03:56:01 10° WSW 04:01:43 37° NW 04:07:25 10° NNE visible
30 Jun 3.9 02:26:18 10° SSW 02:32:29 67° ESE 02:38:38 10° NE visible
30 Jun 6.2 04:15:22 10° W 04:20:12 23° NW 04:25:02 10° N visible
30 Jun 7.0 09:48:45 10° N 09:51:55 14° NE 09:55:05 10° ENE visible
01 Jul 4.2 02:44:19 10° SW 02:50:34 73° WNW 02:56:47 10° NNE visible
01 Jul 6.8 04:35:29 10° WNW 04:38:52 15° NW 04:42:16 10° N visible
01 Jul 6.7 10:05:55 10° N 10:10:37 22° NE 10:15:17 10° E visible
02 Jul 5.2 03:02:55 10° SW 03:08:49 43° NW 03:14:42 10° NNE visible
03 Jul 6.1 03:22:04 10° WSW 03:27:13 27° NW 03:32:23 10° N visible
03 Jul 7.2 08:56:26 10° NNE 08:58:51 12° NE 09:01:16 10° ENE visible
04 Jul 4.1 01:51:27 10° SSW 01:57:43 85° WNW 02:03:57 10° NNE visible
04 Jul 6.8 03:41:53 10° W 03:45:50 17° NW 03:49:47 10° N visible
04 Jul 6.8 09:13:19 10° N 09:17:37 19° NE 09:21:53 10° E visible
